Tillbaka till svenska Fidonet
English   Information   Debug  
FILM   0/18
FNEWS_PUBLISH   4983
FN_SYSOP   42232
FN_SYSOP_OLD1   71952
FTP_FIDO   0/2
FTSC_PUBLIC   0/13976
FUNNY   0/4886
GENEALOGY.EUR   0/71
GET_INFO   105
GOLDED   139/408
HAM   4370/16715
HOLYSMOKE   0/6791
HOT_SITES   0/1
HTMLEDIT   0/71
HUB203   466
HUB_100   264
HUB_400   39
HUMOR   0/29
IC   1653/2851
INTERNET   0/424
INTERUSER   0/3
IP_CONNECT   719
JAMNNTPD   0/233
JAMTLAND   0/47
KATTY_KORNER   0/41
LAN   0/16
LINUX-USER   0/19
LINUXHELP   0/1155
LINUX   0/22386
LINUX_BBS   0/957
mail   18.68
mail_fore_ok   249
MENSA   0/341
MODERATOR   0/102
MONTE   0/992
MOSCOW_OKLAHOMA   0/1245
MUFFIN   0/783
MUSIC   0/321
N203_STAT   938
N203_SYSCHAT   313
NET203   321
NET204   69
NET_DEV   0/10
NORD.ADMIN   0/101
NORD.CHAT   2012/2572
NORD.FIDONET   189
NORD.HARDWARE   0/28
NORD.KULTUR   0/114
NORD.PROG   0/32
NORD.SOFTWARE   0/88
NORD.TEKNIK   0/58
NORD   0/453
OCCULT_CHAT   0/93
OS2BBS   0/787
OS2DOSBBS   0/580
OS2HW   0/42
OS2INET   0/37
OS2LAN   0/134
OS2PROG   0/36
OS2REXX   0/113
OS2USER-L   207
OS2   0/4831
OSDEBATE   0/18996
PASCAL   0/490
PERL   0/457
PHP   0/45
POINTS   0/405
POLITICS   0/29554
POL_INC   1322/14731
PSION   103
R20_ADMIN   1133
R20_AMATORRADIO   0/2
R20_BEST_OF_FIDONET   16
R20_CHAT   0/897
R20_DEPP   0/3
R20_DEV   400
R20_ECHO2   1889
R20_ECHOPRES   0/35
R20_ESTAT   0/719
R20_FIDONETPROG...
...RAM.MYPOINT
  0/2
R20_FIDONETPROGRAM   0/22
R20_FIDONET   0/248
R20_FILEFIND   0/24
R20_FILEFOUND   0/22
R20_HIFI   0/3
R20_INFO2   3782
R20_INTERNET   0/12940
R20_INTRESSE   0/60
R20_INTR_KOM   0/99
R20_KANDIDAT.CHAT   42
R20_KANDIDAT   28
R20_KOM_DEV   112
R20_KONTROLL   0/13360
R20_KORSET   0/18
R20_LOKALTRAFIK   0/24
R20_MODERATOR   0/1852
R20_NC   76
R20_NET200   245
R20_NETWORK.OTH...
...ERNETS
  0/13
R20_OPERATIVSYS...
...TEM.LINUX
  0/44
R20_PROGRAMVAROR   0/1
R20_REC2NEC   534
R20_SFOSM   0/341
R20_SF   0/108
R20_SPRAK.ENGLISH   0/1
R20_SQUISH   107
R20_TEST   2
R20_WORST_OF_FIDONET   20
RAR   0/9
RA_MULTI   106
RA_UTIL   0/162
REGCON.EUR   0/2069
REGCON   0/13
SCIENCE   0/1206
SF   0/239
SHAREWARE_SUPPORT   0/5146
SHAREWRE   0/14
SIMPSONS   0/169
STATS_OLD1   1556/2539.065
STATS_OLD2   0/2530
STATS_OLD3   0/2395.095
STATS_OLD4   0/1692.25
SURVIVOR   0/495
SYSOPS_CORNER   0/3
SYSOP   0/84
TAGLINES   0/112
TEAMOS2   0/4530
TECH   0/2617
TEST.444   0/105
TRAPDOOR   0/19
TREK   0/755
TUB   0/290
UFO   0/40
UNIX   0/1316
USA_EURLINK   0/102
USR_MODEMS   0/1
VATICAN   0/2740
VIETNAM_VETS   0/14
VIRUS   0/378
VIRUS_INFO   0/201
VISUAL_BASIC   0/473
WHITEHOUSE   0/5187
WIN2000   0/101
WIN32   0/30
WIN95   598/4291
WIN95_OLD1   0/70272
WINDOWS   0/1517
WWB_SYSOP   0/419
WWB_TECH   292/810
ZCC-PUBLIC   0/1
ZEC   4

 
4DOS   0/134
ABORTION   0/7
ALASKA_CHAT   0/506
ALLFIX_FILE   0/1313
ALLFIX_FILE_OLD1   0/7997
ALT_DOS   0/152
AMATEUR_RADIO   0/1039
AMIGASALE   0/14
AMIGA   0/331
AMIGA_INT   0/1
AMIGA_PROG   0/20
AMIGA_SYSOP   0/26
ANIME   0/15
ARGUS   0/924
ASCII_ART   0/340
ASIAN_LINK   0/651
ASTRONOMY   0/417
AUDIO   0/92
AUTOMOBILE_RACING   0/105
BABYLON5   0/17862
BAG   135
BATPOWER   325/361
BBBS.ENGLISH   0/382
BBSLAW   0/109
BBS_ADS   0/5290
BBS_INTERNET   0/507
BIBLE   134/3563
BINKD   0/1119
BINKLEY   0/215
BLUEWAVE   0/2173
CABLE_MODEMS   0/25
CBM   0/46
CDRECORD   0/66
CDROM   0/20
CLASSIC_COMPUTER   0/378
COMICS   0/15
CONSPRCY   0/899
COOKING   42010
COOKING_OLD1   0/24719
COOKING_OLD2   0/40862
COOKING_OLD3   0/37489
COOKING_OLD4   0/35496
COOKING_OLD5   9370
C_ECHO   0/189
C_PLUSPLUS   0/31
DIRTY_DOZEN   0/201
DOORGAMES   0/2333
DOS_INTERNET   0/196
duplikat   6102
ECHOLIST   15387/18295
EC_SUPPORT   282/318
ELECTRONICS   0/359
ELEKTRONIK.GER   1534
ENET.LINGUISTIC   0/13
ENET.POLITICS   0/4
ENET.SOFT   0/11701
ENET.SYSOP   34335
ENET.TALKS   0/32
ENGLISH_TUTOR   0/2000
EVOLUTION   0/1335
FDECHO   0/217
FDN_ANNOUNCE   4766/7068
FIDONEWS   25122
FIDONEWS_OLD1   0/49742
FIDONEWS_OLD2   0/35949
FIDONEWS_OLD3   0/30874
FIDONEWS_OLD4   0/37224
FIDO_SYSOP   12973
FIDO_UTIL   0/180
FILEFIND   0/209
FILEGATE   0/212
Möte HAM, 16715 texter
 lista första sista föregående nästa
Text 4795, 937 rader
Skriven 2011-10-27 23:31:24 av Amsat List (1:323/120.0)
Ärende: [keps] orb11300.amsa
============================
[keps] orb11300.amsa

Sender: keps-bounces@amsat.org
Return-Path: <keps-bounces@amsat.org>
X-Rcpt: craig.healy@chowda.com
X-UIDL: 1319772034.1902

SB KEPS @ AMSAT  $ORB11300.O
Orbital Elements  11300.OSCAR

HR AMSAT ORBITAL ELEMENTS FOR OSCAR SATELLITES
FROM WA5QGD FORT WORTH,TX October 27, 2011
Send Subscribe/unsubscribe to KEPS at http://www.amsat.org/mailman/listinfo/kep
BID: ORB11300.O
TO ALL RADIO AMATEURS BT

Satellite: AO-07
Catalog number: 07530
Epoch time:      11300.63396314
Element set:     215
Inclination:      101.3976 deg
RA of node:       301.9659 deg
Eccentricity:    0.0011916
Arg of perigee:   021.2000 deg
Mean anomaly:     338.9562 deg
Mean motion:   12.53584769 rev/day
Decay rate:       -2.7e-07 rev/day^2
Epoch rev:           69078
Checksum:              290

Satellite: FO-29
Catalog number: 24278
Epoch time:      11299.90964725
Element set:     693
Inclination:      098.5667 deg
RA of node:       066.4133 deg
Eccentricity:    0.0349730
Arg of perigee:   275.9906 deg
Mean anomaly:     080.1487 deg
Mean motion:   13.52966838 rev/day
Decay rate:       -1.3e-07 rev/day^2
Epoch rev:           75027
Checksum:              360

Satellite: SO-33
Catalog number: 25509
Epoch time:      11300.18142187
Element set:      85
Inclination:      031.4363 deg
RA of node:       217.7238 deg
Eccentricity:    0.0353534
Arg of perigee:   315.8988 deg
Mean anomaly:     041.3977 deg
Mean motion:   14.28483072 rev/day
Decay rate:      1.156e-05 rev/day^2
Epoch rev:           67916
Checksum:              313

Satellite: RS-22
Catalog number: 27939
Epoch time:      11300.71260478
Element set:     756
Inclination:      097.8276 deg
RA of node:       148.2725 deg
Eccentricity:    0.0012529
Arg of perigee:   288.0158 deg
Mean anomaly:     071.9682 deg
Mean motion:   14.63708628 rev/day
Decay rate:      1.382e-05 rev/day^2
Epoch rev:           43172
Checksum:              329

Satellite: VO-52
Catalog number: 28650
Epoch time:      11300.55065171
Element set:     934
Inclination:      097.6280 deg
RA of node:       337.6668 deg
Eccentricity:    0.0027967
Arg of perigee:   087.8015 deg
Mean anomaly:     272.6408 deg
Mean motion:   14.82310962 rev/day
Decay rate:      3.087e-05 rev/day^2
Epoch rev:           35035
Checksum:              318

Satellite: SO-67
Catalog number: 35870
Epoch time:      11300.89108796
Element set:     352
Inclination:      097.2656 deg
RA of node:       339.7585 deg
Eccentricity:    0.0000552
Arg of perigee:   289.1564 deg
Mean anomaly:     064.9634 deg
Mean motion:   15.21552378 rev/day
Decay rate:      6.783e-05 rev/day^2
Epoch rev:           11710
Checksum:              335

Satellite: HO-68
Catalog number: 36122
Epoch time:      11300.72027981
Element set:     869
Inclination:      100.3994 deg
RA of node:       359.4292 deg
Eccentricity:    0.0007199
Arg of perigee:   283.1064 deg
Mean anomaly:     076.9242 deg
Mean motion:   13.16289364 rev/day
Decay rate:       -4.4e-07 rev/day^2
Epoch rev:            8967
Checksum:              325

/EX
SB KEPS @ AMSAT  $ORB11300.D
Orbital Elements  11300.MICROS

HR AMSAT ORBITAL ELEMENTS FOR THE MICROSATS
FROM WA5QGD FORT WORTH,TX October 27, 2011
Send Subscribe/unsubscribe to KEPS at http://www.amsat.org/mailman/listinfo/kep
BID: ORB11300.D
TO ALL RADIO AMATEURS BT

Satellite: UO-11
Catalog number: 14781
Epoch time:      11300.37917893
Element set:     690
Inclination:      097.9891 deg
RA of node:       356.5597 deg
Eccentricity:    0.0010074
Arg of perigee:   072.3352 deg
Mean anomaly:     287.8958 deg
Mean motion:   14.80106700 rev/day
Decay rate:      1.373e-05 rev/day^2
Epoch rev:           48534
Checksum:              328

Satellite: AO-16
Catalog number: 20439
Epoch time:      11299.87743610
Element set:     311
Inclination:      098.3992 deg
RA of node:       245.1885 deg
Eccentricity:    0.0011419
Arg of perigee:   129.4742 deg
Mean anomaly:     230.7453 deg
Mean motion:   14.31958974 rev/day
Decay rate:       3.00e-06 rev/day^2
Epoch rev:           13646
Checksum:              314

Satellite: LO-19
Catalog number: 20442
Epoch time:      11300.84460457
Element set:     232
Inclination:      098.3646 deg
RA of node:       249.9765 deg
Eccentricity:    0.0012595
Arg of perigee:   120.4880 deg
Mean anomaly:     239.7551 deg
Mean motion:   14.32183104 rev/day
Decay rate:       3.40e-06 rev/day^2
Epoch rev:           13678
Checksum:              296

Satellite: AO-27
Catalog number: 22825
Epoch time:      11299.82280215
Element set:     946
Inclination:      098.5439 deg
RA of node:       241.6430 deg
Eccentricity:    0.0007607
Arg of perigee:   247.6167 deg
Mean anomaly:     112.4219 deg
Mean motion:   14.29380365 rev/day
Decay rate:       1.82e-06 rev/day^2
Epoch rev:           94299
Checksum:              323

Satellite: IO-26
Catalog number: 22826
Epoch time:      11300.00796645
Element set:     691
Inclination:      098.5390 deg
RA of node:       242.2582 deg
Eccentricity:    0.0008051
Arg of perigee:   241.9026 deg
Mean anomaly:     118.1340 deg
Mean motion:   14.29646374 rev/day
Decay rate:       2.95e-06 rev/day^2
Epoch rev:           94314
Checksum:              294

Satellite: GO-32
Catalog number: 25397
Epoch time:      11300.57483671
Element set:     614
Inclination:      098.3390 deg
RA of node:       286.1378 deg
Eccentricity:    0.0000510
Arg of perigee:   206.1035 deg
Mean anomaly:     154.0123 deg
Mean motion:   14.23229022 rev/day
Decay rate:       1.76e-06 rev/day^2
Epoch rev:           69079
Checksum:              276

